Year,Month,Day,Hour,Minute,Value (Times are PST for temperature in C)
2009,05,17,00,00,11.90
2009,05,17,00,01,11.90
2009,05,17,00,02,11.90
2009,05,17,00,03,11.90
2009,05,17,00,04,11.90
2009,05,17,00,05,11.80
2009,05,17,00,06,11.80
2009,05,17,00,07,11.80
2009,05,17,00,08,11.80
2009,05,17,00,09,11.80
2009,05,17,00,10,11.80
2009,05,17,00,11,11.80
2009,05,17,00,12,11.80
2009,05,17,00,13,11.70
2009,05,17,00,14,11.70
2009,05,17,00,15,11.70
2009,05,17,00,16,11.70
2009,05,17,00,17,11.70
2009,05,17,00,18,11.70
2009,05,17,00,19,11.70
2009,05,17,00,20,11.70
2009,05,17,00,21,11.70
2009,05,17,00,22,11.70
2009,05,17,00,23,11.70
2009,05,17,00,24,11.70
2009,05,17,00,25,11.70
2009,05,17,00,26,11.70
2009,05,17,00,27,11.70
2009,05,17,00,28,11.70
2009,05,17,00,29,11.70
2009,05,17,00,30,11.60
2009,05,17,00,31,11.60
2009,05,17,00,32,11.60
2009,05,17,00,33,11.60
2009,05,17,00,34,11.60
2009,05,17,00,35,11.60
2009,05,17,00,36,11.60
2009,05,17,00,37,11.60
2009,05,17,00,38,11.60
2009,05,17,00,39,11.60
2009,05,17,00,40,11.60
2009,05,17,00,41,11.60
2009,05,17,00,42,11.60
2009,05,17,00,43,11.60
2009,05,17,00,44,11.60
2009,05,17,00,45,11.60
2009,05,17,00,46,11.60
2009,05,17,00,47,11.60
2009,05,17,00,48,11.70
2009,05,17,00,49,11.70
2009,05,17,00,50,11.70
2009,05,17,00,51,11.70
2009,05,17,00,52,11.70
2009,05,17,00,53,11.70
2009,05,17,00,54,11.70
2009,05,17,00,55,11.70
2009,05,17,00,56,11.70
2009,05,17,00,57,11.70
2009,05,17,00,58,11.70
2009,05,17,00,59,11.70
2009,05,17,01,00,11.70
2009,05,17,01,01,11.70
2009,05,17,01,02,11.70
2009,05,17,01,03,11.70
2009,05,17,01,04,11.70
2009,05,17,01,05,11.70
2009,05,17,01,06,11.70
2009,05,17,01,07,11.70
2009,05,17,01,08,11.70
2009,05,17,01,09,11.70
2009,05,17,01,10,11.60
2009,05,17,01,11,11.60
2009,05,17,01,12,11.60
2009,05,17,01,13,11.60
2009,05,17,01,14,11.60
2009,05,17,01,15,11.60
2009,05,17,01,16,11.60
2009,05,17,01,17,11.60
2009,05,17,01,18,11.60
2009,05,17,01,19,11.60
2009,05,17,01,20,11.60
2009,05,17,01,21,11.50
2009,05,17,01,22,11.50
2009,05,17,01,23,11.50
2009,05,17,01,24,11.40
2009,05,17,01,25,11.40
2009,05,17,01,26,11.40
2009,05,17,01,27,11.40
2009,05,17,01,28,11.40
2009,05,17,01,29,11.40
2009,05,17,01,30,11.40
2009,05,17,01,31,11.30
2009,05,17,01,32,11.30
2009,05,17,01,33,11.30
2009,05,17,01,34,11.30
2009,05,17,01,35,11.30
2009,05,17,01,36,11.30
2009,05,17,01,37,11.30
2009,05,17,01,38,11.30
2009,05,17,01,39,11.30
2009,05,17,01,40,11.30
2009,05,17,01,41,11.30
2009,05,17,01,42,11.30
2009,05,17,01,43,11.30
2009,05,17,01,44,11.20
2009,05,17,01,45,11.20
2009,05,17,01,46,11.20
2009,05,17,01,47,11.20
2009,05,17,01,48,11.20
2009,05,17,01,49,11.20
2009,05,17,01,50,11.20
2009,05,17,01,51,11.10
2009,05,17,01,52,11.10
2009,05,17,01,53,11.10
2009,05,17,01,54,11.10
2009,05,17,01,55,11.10
2009,05,17,01,56,11.10
2009,05,17,01,57,11.00
2009,05,17,01,58,11.00
2009,05,17,01,59,11.00
2009,05,17,02,00,11.00
2009,05,17,02,01,10.90
2009,05,17,02,02,10.90
2009,05,17,02,03,10.90
2009,05,17,02,04,10.90
2009,05,17,02,05,10.90
2009,05,17,02,06,10.90
2009,05,17,02,07,10.90
2009,05,17,02,08,10.80
2009,05,17,02,09,10.80
2009,05,17,02,10,10.80
2009,05,17,02,11,10.80
2009,05,17,02,12,10.80
2009,05,17,02,13,10.80
2009,05,17,02,14,10.80
2009,05,17,02,15,10.80
2009,05,17,02,16,10.80
2009,05,17,02,17,10.80
2009,05,17,02,18,10.80
2009,05,17,02,19,10.80
2009,05,17,02,20,10.70
2009,05,17,02,21,10.70
2009,05,17,02,22,10.70
2009,05,17,02,23,10.70
2009,05,17,02,24,10.70
2009,05,17,02,25,10.70
2009,05,17,02,26,10.70
2009,05,17,02,27,10.70
2009,05,17,02,28,10.70
2009,05,17,02,29,10.70
2009,05,17,02,30,10.70
2009,05,17,02,31,10.70
2009,05,17,02,32,10.70
2009,05,17,02,33,10.60
2009,05,17,02,34,10.60
2009,05,17,02,35,10.60
2009,05,17,02,36,10.60
2009,05,17,02,37,10.60
2009,05,17,02,38,10.60
2009,05,17,02,39,10.50
2009,05,17,02,40,10.50
2009,05,17,02,41,10.50
2009,05,17,02,42,10.50
2009,05,17,02,43,10.50
2009,05,17,02,44,10.50
2009,05,17,02,45,10.40
2009,05,17,02,46,10.40
2009,05,17,02,47,10.40
2009,05,17,02,48,10.40
2009,05,17,02,49,10.40
2009,05,17,02,50,10.40
2009,05,17,02,51,10.40
2009,05,17,02,52,10.40
2009,05,17,02,53,10.40
2009,05,17,02,54,10.40
2009,05,17,02,55,10.40
2009,05,17,02,56,10.30
2009,05,17,02,57,10.30
2009,05,17,02,58,10.30
2009,05,17,02,59,10.30
2009,05,17,03,00,10.30
2009,05,17,03,01,10.30
2009,05,17,03,02,10.30
2009,05,17,03,03,10.30
2009,05,17,03,04,10.30
2009,05,17,03,05,10.30
2009,05,17,03,06,10.30
2009,05,17,03,07,10.30
2009,05,17,03,08,10.30
2009,05,17,03,09,10.30
2009,05,17,03,10,10.30
2009,05,17,03,11,10.30
2009,05,17,03,12,10.30
2009,05,17,03,13,10.30
2009,05,17,03,14,10.30
2009,05,17,03,15,10.30
2009,05,17,03,16,10.30
2009,05,17,03,17,10.30
2009,05,17,03,18,10.30
2009,05,17,03,19,10.30
2009,05,17,03,20,10.30
2009,05,17,03,21,10.30
2009,05,17,03,22,10.30
2009,05,17,03,23,10.30
2009,05,17,03,24,10.30
2009,05,17,03,25,10.30
2009,05,17,03,26,10.30
2009,05,17,03,27,10.30
2009,05,17,03,28,10.30
2009,05,17,03,29,10.30
2009,05,17,03,30,10.30
2009,05,17,03,31,10.30
2009,05,17,03,32,10.30
2009,05,17,03,33,10.30
2009,05,17,03,34,10.30
2009,05,17,03,35,10.30
2009,05,17,03,36,10.30
2009,05,17,03,37,10.30
2009,05,17,03,38,10.30
2009,05,17,03,39,10.30
2009,05,17,03,40,10.30
2009,05,17,03,41,10.40
2009,05,17,03,42,10.40
2009,05,17,03,43,10.40
2009,05,17,03,44,10.40
2009,05,17,03,45,10.40
2009,05,17,03,46,10.40
2009,05,17,03,47,10.40
2009,05,17,03,48,10.40
2009,05,17,03,49,10.40
2009,05,17,03,50,10.40
2009,05,17,03,51,10.40
2009,05,17,03,52,10.40
2009,05,17,03,53,10.40
2009,05,17,03,54,10.40
2009,05,17,03,55,10.40
2009,05,17,03,56,10.40
2009,05,17,03,57,10.50
2009,05,17,03,58,10.50
2009,05,17,03,59,10.50
2009,05,17,04,00,10.40
2009,05,17,04,01,10.40
2009,05,17,04,02,10.40
2009,05,17,04,03,10.40
2009,05,17,04,04,10.40
2009,05,17,04,05,10.40
2009,05,17,04,06,10.40
2009,05,17,04,07,10.40
2009,05,17,04,08,10.40
2009,05,17,04,09,10.40
2009,05,17,04,10,10.40
2009,05,17,04,11,10.40
2009,05,17,04,12,10.30
2009,05,17,04,13,10.30
2009,05,17,04,14,10.30
2009,05,17,04,15,10.30
2009,05,17,04,16,10.30
2009,05,17,04,17,10.30
2009,05,17,04,18,10.30
2009,05,17,04,19,10.30
2009,05,17,04,20,10.30
2009,05,17,04,21,10.30
2009,05,17,04,22,10.30
2009,05,17,04,23,10.30
2009,05,17,04,24,10.30
2009,05,17,04,25,10.30
2009,05,17,04,26,10.30
2009,05,17,04,27,10.30
2009,05,17,04,28,10.30
2009,05,17,04,29,10.30
2009,05,17,04,30,10.20
2009,05,17,04,31,10.20
2009,05,17,04,32,10.20
2009,05,17,04,33,10.20
2009,05,17,04,34,10.30
2009,05,17,04,35,10.30
2009,05,17,04,36,10.30
2009,05,17,04,37,10.30
2009,05,17,04,38,10.30
2009,05,17,04,39,10.30
2009,05,17,04,40,10.40
2009,05,17,04,41,10.40
2009,05,17,04,42,10.40
2009,05,17,04,43,10.50
2009,05,17,04,44,10.50
2009,05,17,04,45,10.60
2009,05,17,04,46,10.60
2009,05,17,04,47,10.60
2009,05,17,04,48,10.60
2009,05,17,04,49,10.70
2009,05,17,04,50,10.70
2009,05,17,04,51,10.70
2009,05,17,04,52,10.80
2009,05,17,04,53,10.80
2009,05,17,04,54,10.90
2009,05,17,04,55,10.90
2009,05,17,04,56,11.00
2009,05,17,04,57,11.20
2009,05,17,04,58,11.30
2009,05,17,04,59,11.30
2009,05,17,05,00,11.40
2009,05,17,05,01,11.40
2009,05,17,05,02,11.40
2009,05,17,05,03,11.50
2009,05,17,05,04,11.60
2009,05,17,05,05,11.60
2009,05,17,05,06,11.60
2009,05,17,05,07,11.60
2009,05,17,05,08,11.70
2009,05,17,05,09,11.80
2009,05,17,05,10,11.80
2009,05,17,05,11,11.80
2009,05,17,05,12,11.90
2009,05,17,05,13,11.90
2009,05,17,05,14,12.00
2009,05,17,05,15,12.00
2009,05,17,05,16,12.10
2009,05,17,05,17,12.10
2009,05,17,05,18,12.20
2009,05,17,05,19,12.20
2009,05,17,05,20,12.20
2009,05,17,05,21,12.20
2009,05,17,05,22,12.20
2009,05,17,05,23,12.30
2009,05,17,05,24,12.30
2009,05,17,05,25,12.40
2009,05,17,05,26,12.50
2009,05,17,05,27,12.60
2009,05,17,05,28,12.70
2009,05,17,05,29,12.80
2009,05,17,05,30,12.80
2009,05,17,05,31,12.80
2009,05,17,05,32,12.90
2009,05,17,05,33,12.90
2009,05,17,05,34,12.90
2009,05,17,05,35,12.90
2009,05,17,05,36,13.00
2009,05,17,05,37,13.10
2009,05,17,05,38,13.10
2009,05,17,05,39,13.10
2009,05,17,05,40,13.10
2009,05,17,05,41,13.10
2009,05,17,05,42,13.10
2009,05,17,05,43,13.10
2009,05,17,05,44,13.10
2009,05,17,05,45,13.00
2009,05,17,05,46,12.90
2009,05,17,05,47,12.90
2009,05,17,05,48,12.80
2009,05,17,05,49,12.80
2009,05,17,05,50,12.80
2009,05,17,05,51,12.70
2009,05,17,05,52,12.70
2009,05,17,05,53,12.70
2009,05,17,05,54,12.60
2009,05,17,05,55,12.60
2009,05,17,05,56,12.60
2009,05,17,05,57,12.50
2009,05,17,05,58,12.50
2009,05,17,05,59,12.50
2009,05,17,06,00,12.40
2009,05,17,06,01,12.40
2009,05,17,06,02,12.40
2009,05,17,06,03,12.40
2009,05,17,06,04,12.40
2009,05,17,06,05,12.30
2009,05,17,06,06,12.30
2009,05,17,06,07,12.30
2009,05,17,06,08,12.30
2009,05,17,06,09,12.30
2009,05,17,06,10,12.30
2009,05,17,06,11,12.30
2009,05,17,06,12,12.30
2009,05,17,06,13,12.30
2009,05,17,06,14,12.30
2009,05,17,06,15,12.30
2009,05,17,06,16,12.30
2009,05,17,06,17,12.30
2009,05,17,06,18,12.30
2009,05,17,06,19,12.30
2009,05,17,06,20,12.30
2009,05,17,06,21,12.40
2009,05,17,06,22,12.40
2009,05,17,06,23,12.50
2009,05,17,06,24,12.50
2009,05,17,06,25,12.50
2009,05,17,06,26,12.60
2009,05,17,06,27,12.60
2009,05,17,06,28,12.70
2009,05,17,06,29,12.70
2009,05,17,06,30,12.70
2009,05,17,06,31,12.80
2009,05,17,06,32,12.80
2009,05,17,06,33,12.80
2009,05,17,06,34,12.90
2009,05,17,06,35,12.90
2009,05,17,06,36,13.00
2009,05,17,06,37,13.00
2009,05,17,06,38,13.10
2009,05,17,06,39,13.10
2009,05,17,06,40,13.20
2009,05,17,06,41,13.20
2009,05,17,06,42,13.20
2009,05,17,06,43,13.30
2009,05,17,06,44,13.30
2009,05,17,06,45,13.30
2009,05,17,06,46,13.30
2009,05,17,06,47,13.40
2009,05,17,06,48,13.40
2009,05,17,06,49,13.40
2009,05,17,06,50,13.50
2009,05,17,06,51,13.50
2009,05,17,06,52,13.60
2009,05,17,06,53,13.60
2009,05,17,06,54,13.70
2009,05,17,06,55,13.70
2009,05,17,06,56,13.70
2009,05,17,06,57,13.80
2009,05,17,06,58,13.80
2009,05,17,06,59,13.80
2009,05,17,07,00,13.80
2009,05,17,07,01,13.80
2009,05,17,07,02,13.80
2009,05,17,07,03,13.80
2009,05,17,07,04,13.80
2009,05,17,07,05,13.80
2009,05,17,07,06,13.80
2009,05,17,07,07,13.80
2009,05,17,07,08,13.80
2009,05,17,07,09,13.80
2009,05,17,07,10,13.90
2009,05,17,07,11,13.90
2009,05,17,07,12,13.90
2009,05,17,07,13,13.90
2009,05,17,07,14,13.90
2009,05,17,07,15,13.90
2009,05,17,07,16,14.00
2009,05,17,07,17,14.00
2009,05,17,07,18,14.00
2009,05,17,07,19,14.10
2009,05,17,07,20,14.10
2009,05,17,07,21,14.20
2009,05,17,07,22,14.20
2009,05,17,07,23,14.30
2009,05,17,07,24,14.30
2009,05,17,07,25,14.40
2009,05,17,07,26,14.40
2009,05,17,07,27,14.50
2009,05,17,07,28,14.60
2009,05,17,07,29,14.60
2009,05,17,07,30,14.70
2009,05,17,07,31,14.70
2009,05,17,07,32,14.80
2009,05,17,07,33,14.90
2009,05,17,07,34,15.00
2009,05,17,07,35,15.00
2009,05,17,07,36,15.00
2009,05,17,07,37,15.00
2009,05,17,07,38,15.00
2009,05,17,07,39,15.10
2009,05,17,07,40,15.20
2009,05,17,07,41,15.20
2009,05,17,07,42,15.20
2009,05,17,07,43,15.30
2009,05,17,07,44,15.30
2009,05,17,07,45,15.30
2009,05,17,07,46,15.40
2009,05,17,07,47,15.40
2009,05,17,07,48,15.50
2009,05,17,07,49,15.50
2009,05,17,07,50,15.60
2009,05,17,07,51,15.60
2009,05,17,07,52,15.60
2009,05,17,07,53,15.70
2009,05,17,07,54,15.70
2009,05,17,07,55,15.60
2009,05,17,07,56,15.60
2009,05,17,07,57,15.60
2009,05,17,07,58,15.60
2009,05,17,07,59,15.70
2009,05,17,08,00,15.70
2009,05,17,08,01,15.70
2009,05,17,08,02,15.80
2009,05,17,08,03,15.80
2009,05,17,08,04,15.90
2009,05,17,08,05,15.90
2009,05,17,08,06,15.90
2009,05,17,08,07,16.00
2009,05,17,08,08,16.00
2009,05,17,08,09,16.10
2009,05,17,08,10,16.10
2009,05,17,08,11,16.10
2009,05,17,08,12,16.00
2009,05,17,08,13,16.00
2009,05,17,08,14,16.00
2009,05,17,08,15,15.90
2009,05,17,08,16,15.90
2009,05,17,08,17,15.90
2009,05,17,08,18,15.90
2009,05,17,08,19,15.90
2009,05,17,08,20,15.90
2009,05,17,08,21,16.00
2009,05,17,08,22,16.00
2009,05,17,08,23,16.10
2009,05,17,08,24,16.10
2009,05,17,08,25,16.20
2009,05,17,08,26,16.20
2009,05,17,08,27,16.30
2009,05,17,08,28,16.30
2009,05,17,08,29,16.40
2009,05,17,08,30,16.40
2009,05,17,08,31,16.40
2009,05,17,08,32,16.40
2009,05,17,08,33,16.40
2009,05,17,08,34,16.40
2009,05,17,08,35,16.40
2009,05,17,08,36,16.40
2009,05,17,08,37,16.40
2009,05,17,08,38,16.40
2009,05,17,08,39,16.40
2009,05,17,08,40,16.40
2009,05,17,08,41,16.40
2009,05,17,08,42,16.40
2009,05,17,08,43,16.40
2009,05,17,08,44,16.40
2009,05,17,08,45,16.40
2009,05,17,08,46,16.40
2009,05,17,08,47,16.40
2009,05,17,08,48,16.50
2009,05,17,08,49,16.60
2009,05,17,08,50,16.60
2009,05,17,08,51,16.70
2009,05,17,08,52,16.70
2009,05,17,08,53,16.80
2009,05,17,08,54,16.80
2009,05,17,08,55,16.80
2009,05,17,08,56,16.90
2009,05,17,08,57,16.90
2009,05,17,08,58,17.00
2009,05,17,08,59,17.10
2009,05,17,09,00,17.10
2009,05,17,09,01,17.20
2009,05,17,09,02,17.30
2009,05,17,09,03,17.30
2009,05,17,09,04,17.30
2009,05,17,09,05,17.30
2009,05,17,09,06,17.30
2009,05,17,09,07,17.30
2009,05,17,09,08,17.30
2009,05,17,09,09,17.20
2009,05,17,09,10,17.10
2009,05,17,09,11,17.00
2009,05,17,09,12,16.90
2009,05,17,09,13,16.90
2009,05,17,09,14,16.90
2009,05,17,09,15,16.80
2009,05,17,09,16,16.80
2009,05,17,09,17,16.70
2009,05,17,09,18,16.70
2009,05,17,09,19,16.60
2009,05,17,09,20,16.50
2009,05,17,09,21,16.50
2009,05,17,09,22,16.50
2009,05,17,09,23,16.50
2009,05,17,09,24,16.60
2009,05,17,09,25,16.60
2009,05,17,09,26,16.60
2009,05,17,09,27,16.70
2009,05,17,09,28,16.70
2009,05,17,09,29,16.80
2009,05,17,09,30,16.80
2009,05,17,09,31,16.70
2009,05,17,09,32,16.70
2009,05,17,09,33,16.70
2009,05,17,09,34,16.60
2009,05,17,09,35,16.60
2009,05,17,09,36,16.50
2009,05,17,09,37,16.50
2009,05,17,09,38,16.50
2009,05,17,09,39,16.60
2009,05,17,09,40,16.60
2009,05,17,09,41,16.70
2009,05,17,09,42,16.80
2009,05,17,09,43,16.80
2009,05,17,09,44,16.80
2009,05,17,09,45,16.90
2009,05,17,09,46,16.90
2009,05,17,09,47,16.90
2009,05,17,09,48,16.90
2009,05,17,09,49,16.90
2009,05,17,09,50,16.90
2009,05,17,09,51,17.00
2009,05,17,09,52,17.00
2009,05,17,09,53,17.00
2009,05,17,09,54,17.00
2009,05,17,09,55,17.10
2009,05,17,09,56,17.10
2009,05,17,09,57,17.20
2009,05,17,09,58,17.30
2009,05,17,09,59,17.30
2009,05,17,10,00,17.40
2009,05,17,10,01,17.40
2009,05,17,10,02,17.40
2009,05,17,10,03,17.40
2009,05,17,10,04,17.30
2009,05,17,10,05,17.20
2009,05,17,10,06,17.20
2009,05,17,10,07,17.20
2009,05,17,10,08,17.20
2009,05,17,10,09,17.30
2009,05,17,10,10,17.40
2009,05,17,10,11,17.50
2009,05,17,10,12,17.60
2009,05,17,10,13,17.60
2009,05,17,10,14,17.60
2009,05,17,10,15,17.60
2009,05,17,10,16,17.70
2009,05,17,10,17,17.70
2009,05,17,10,18,17.70
2009,05,17,10,19,17.80
2009,05,17,10,20,17.80
2009,05,17,10,21,17.80
2009,05,17,10,22,17.80
2009,05,17,10,23,17.90
2009,05,17,10,24,17.90
2009,05,17,10,25,17.90
2009,05,17,10,26,17.90
2009,05,17,10,27,17.90
2009,05,17,10,28,17.80
2009,05,17,10,29,17.70
2009,05,17,10,30,17.60
2009,05,17,10,31,17.50
2009,05,17,10,32,17.40
2009,05,17,10,33,17.40
2009,05,17,10,34,17.30
2009,05,17,10,35,17.30
2009,05,17,10,36,17.20
2009,05,17,10,37,17.20
2009,05,17,10,38,17.10
2009,05,17,10,39,17.10
2009,05,17,10,40,17.00
2009,05,17,10,41,16.90
2009,05,17,10,42,16.90
2009,05,17,10,43,16.90
2009,05,17,10,44,16.90
2009,05,17,10,45,16.90
2009,05,17,10,46,17.00
2009,05,17,10,47,17.10
2009,05,17,10,48,17.20
2009,05,17,10,49,17.20
2009,05,17,10,50,17.30
2009,05,17,10,51,17.30
2009,05,17,10,52,17.40
2009,05,17,10,53,17.40
2009,05,17,10,54,17.50
2009,05,17,10,55,17.60
2009,05,17,10,56,17.60
2009,05,17,10,57,17.70
2009,05,17,10,58,17.70
2009,05,17,10,59,17.80
2009,05,17,11,00,17.80
2009,05,17,11,01,17.80
2009,05,17,11,02,17.70
2009,05,17,11,03,17.70
2009,05,17,11,04,17.70
2009,05,17,11,05,17.70
2009,05,17,11,06,17.70
2009,05,17,11,07,17.70
2009,05,17,11,08,17.80
2009,05,17,11,09,17.80
2009,05,17,11,10,17.90
2009,05,17,11,11,17.90
2009,05,17,11,12,17.80
2009,05,17,11,13,17.80
2009,05,17,11,14,17.70
2009,05,17,11,15,17.70
2009,05,17,11,16,17.60
2009,05,17,11,17,17.40
2009,05,17,11,18,17.30
2009,05,17,11,19,17.30
2009,05,17,11,20,17.30
2009,05,17,11,21,17.40
2009,05,17,11,22,17.40
2009,05,17,11,23,17.50
2009,05,17,11,24,17.50
2009,05,17,11,25,17.50
2009,05,17,11,26,17.50
2009,05,17,11,27,17.60
2009,05,17,11,28,17.60
2009,05,17,11,29,17.60
2009,05,17,11,30,17.70
2009,05,17,11,31,17.80
2009,05,17,11,32,17.90
2009,05,17,11,33,17.90
2009,05,17,11,34,18.00
2009,05,17,11,35,18.00
2009,05,17,11,36,18.10
2009,05,17,11,37,18.20
2009,05,17,11,38,18.20
2009,05,17,11,39,18.30
2009,05,17,11,40,18.40
2009,05,17,11,41,18.40
2009,05,17,11,42,18.50
2009,05,17,11,43,18.50
2009,05,17,11,44,18.60
2009,05,17,11,45,18.60
2009,05,17,11,46,18.60
2009,05,17,11,47,18.60
2009,05,17,11,48,18.60
2009,05,17,11,49,18.60
2009,05,17,11,50,18.60
2009,05,17,11,51,18.60
2009,05,17,11,52,18.70
2009,05,17,11,53,18.70
2009,05,17,11,54,18.70
2009,05,17,11,55,18.70
2009,05,17,11,56,18.70
2009,05,17,11,57,18.70
2009,05,17,11,58,18.70
2009,05,17,11,59,18.80
2009,05,17,12,00,18.80
2009,05,17,12,01,18.80
2009,05,17,12,02,18.90
2009,05,17,12,03,18.90
2009,05,17,12,04,18.90
2009,05,17,12,05,18.80
2009,05,17,12,06,18.80
2009,05,17,12,07,18.80
2009,05,17,12,08,18.80
2009,05,17,12,09,18.80
2009,05,17,12,10,18.90
2009,05,17,12,11,18.90
2009,05,17,12,12,19.00
2009,05,17,12,13,19.00
2009,05,17,12,14,19.10
2009,05,17,12,15,19.20
2009,05,17,12,16,19.30
2009,05,17,12,17,19.40
2009,05,17,12,18,19.40
2009,05,17,12,19,19.50
2009,05,17,12,20,19.50
2009,05,17,12,21,19.60
2009,05,17,12,22,19.60
2009,05,17,12,23,19.60
2009,05,17,12,24,19.60
2009,05,17,12,25,19.70
2009,05,17,12,26,19.80
2009,05,17,12,27,19.80
2009,05,17,12,28,19.90
2009,05,17,12,29,19.90
2009,05,17,12,30,20.00
2009,05,17,12,31,20.00
2009,05,17,12,32,20.00
2009,05,17,12,33,20.10
2009,05,17,12,34,20.10
2009,05,17,12,35,20.20
2009,05,17,12,36,20.30
2009,05,17,12,37,20.20
2009,05,17,12,38,20.10
2009,05,17,12,39,20.00
2009,05,17,12,40,19.90
2009,05,17,12,41,19.90
2009,05,17,12,42,19.90
2009,05,17,12,43,20.00
2009,05,17,12,44,20.00
2009,05,17,12,45,20.20
2009,05,17,12,46,20.20
2009,05,17,12,47,20.30
2009,05,17,12,48,20.30
2009,05,17,12,49,20.30
2009,05,17,12,50,20.30
2009,05,17,12,51,20.30
2009,05,17,12,52,20.30
2009,05,17,12,53,20.30
2009,05,17,12,54,20.30
2009,05,17,12,55,20.20
2009,05,17,12,56,20.20
2009,05,17,12,57,20.20
2009,05,17,12,58,20.20
2009,05,17,12,59,20.20
2009,05,17,13,00,20.30
2009,05,17,13,01,20.30
2009,05,17,13,02,20.30
2009,05,17,13,03,20.30
2009,05,17,13,04,20.40
2009,05,17,13,05,20.50
2009,05,17,13,06,20.50
2009,05,17,13,07,20.60
2009,05,17,13,08,20.70
2009,05,17,13,09,20.60
2009,05,17,13,10,20.60
2009,05,17,13,11,20.60
2009,05,17,13,12,20.60
2009,05,17,13,13,20.60
2009,05,17,13,14,20.60
2009,05,17,13,15,20.60
2009,05,17,13,16,20.70
2009,05,17,13,17,20.70
2009,05,17,13,18,20.70
2009,05,17,13,19,20.70
2009,05,17,13,20,20.80
2009,05,17,13,21,20.70
2009,05,17,13,22,20.80
2009,05,17,13,23,20.70
2009,05,17,13,24,20.70
2009,05,17,13,25,20.70
2009,05,17,13,26,20.70
2009,05,17,13,27,20.60
2009,05,17,13,28,20.60
2009,05,17,13,29,20.60
2009,05,17,13,30,20.60
2009,05,17,13,31,20.50
2009,05,17,13,32,20.50
2009,05,17,13,33,20.50
2009,05,17,13,34,20.50
2009,05,17,13,35,20.40
2009,05,17,13,36,20.40
2009,05,17,13,37,20.40
2009,05,17,13,38,20.40
2009,05,17,13,39,20.50
2009,05,17,13,40,20.50
2009,05,17,13,41,20.50
2009,05,17,13,42,20.50
2009,05,17,13,43,20.50
2009,05,17,13,44,20.50
2009,05,17,13,45,20.50
2009,05,17,13,46,20.50
2009,05,17,13,47,20.60
2009,05,17,13,48,20.70
2009,05,17,13,49,20.70
2009,05,17,13,50,20.70
2009,05,17,13,51,20.80
2009,05,17,13,52,21.00
2009,05,17,13,53,21.10
2009,05,17,13,54,21.10
2009,05,17,13,55,21.10
2009,05,17,13,56,21.10
2009,05,17,13,57,21.10
2009,05,17,13,58,21.10
2009,05,17,13,59,21.10
2009,05,17,14,00,21.20
2009,05,17,14,01,21.20
2009,05,17,14,02,21.20
2009,05,17,14,03,21.20
2009,05,17,14,04,21.10
2009,05,17,14,05,21.00
2009,05,17,14,06,20.90
2009,05,17,14,07,20.80
2009,05,17,14,08,20.90
2009,05,17,14,09,21.00
2009,05,17,14,10,21.10
2009,05,17,14,11,21.10
2009,05,17,14,12,21.20
2009,05,17,14,13,21.20
2009,05,17,14,14,21.20
2009,05,17,14,15,21.20
2009,05,17,14,16,21.20
2009,05,17,14,17,21.20
2009,05,17,14,18,21.20
2009,05,17,14,19,21.20
2009,05,17,14,20,21.20
2009,05,17,14,21,21.20
2009,05,17,14,22,21.10
2009,05,17,14,23,21.10
2009,05,17,14,24,21.10
2009,05,17,14,25,21.00
2009,05,17,14,26,21.00
2009,05,17,14,27,20.90
2009,05,17,14,28,20.80
2009,05,17,14,29,20.70
2009,05,17,14,30,20.50
2009,05,17,14,31,20.40
2009,05,17,14,32,20.30
2009,05,17,14,33,20.30
2009,05,17,14,34,20.20
2009,05,17,14,35,20.00
2009,05,17,14,36,20.00
2009,05,17,14,37,19.90
2009,05,17,14,38,19.90
2009,05,17,14,39,19.90
2009,05,17,14,40,19.90
2009,05,17,14,41,19.90
2009,05,17,14,42,19.90
2009,05,17,14,43,19.90
2009,05,17,14,44,20.00
2009,05,17,14,45,20.10
2009,05,17,14,46,20.20
2009,05,17,14,47,20.30
2009,05,17,14,48,20.40
2009,05,17,14,49,20.40
2009,05,17,14,50,20.50
2009,05,17,14,51,20.60
2009,05,17,14,52,20.70
2009,05,17,14,53,20.80
2009,05,17,14,54,20.90
2009,05,17,14,55,21.00
2009,05,17,14,56,21.10
2009,05,17,14,57,21.20
2009,05,17,14,58,21.30
2009,05,17,14,59,21.50
2009,05,17,15,00,21.50
2009,05,17,15,01,21.60
2009,05,17,15,02,21.60
2009,05,17,15,03,21.60
2009,05,17,15,04,21.60
2009,05,17,15,05,21.70
2009,05,17,15,06,21.70
2009,05,17,15,07,21.80
2009,05,17,15,08,21.80
2009,05,17,15,09,21.80
2009,05,17,15,10,21.70
2009,05,17,15,11,21.70
2009,05,17,15,12,21.80
2009,05,17,15,13,21.80
2009,05,17,15,14,21.80
2009,05,17,15,15,21.80
2009,05,17,15,16,21.90
2009,05,17,15,17,21.90
2009,05,17,15,18,21.90
2009,05,17,15,19,21.80
2009,05,17,15,20,21.70
2009,05,17,15,21,21.50
2009,05,17,15,22,21.50
2009,05,17,15,23,21.60
2009,05,17,15,24,21.60
2009,05,17,15,25,21.60
2009,05,17,15,26,21.60
2009,05,17,15,27,21.80
2009,05,17,15,28,21.90
2009,05,17,15,29,22.00
2009,05,17,15,30,22.00
2009,05,17,15,31,22.10
2009,05,17,15,32,22.10
2009,05,17,15,33,22.10
2009,05,17,15,34,22.10
2009,05,17,15,35,22.20
2009,05,17,15,36,22.30
2009,05,17,15,37,22.40
2009,05,17,15,38,22.50
2009,05,17,15,39,22.50
2009,05,17,15,40,22.40
2009,05,17,15,41,22.30
2009,05,17,15,42,22.10
2009,05,17,15,43,21.90
2009,05,17,15,44,21.80
2009,05,17,15,45,21.70
2009,05,17,15,46,21.60
2009,05,17,15,47,21.60
2009,05,17,15,48,21.60
2009,05,17,15,49,21.60
2009,05,17,15,50,21.60
2009,05,17,15,51,21.50
2009,05,17,15,52,21.40
2009,05,17,15,53,21.30
2009,05,17,15,54,21.20
2009,05,17,15,55,21.20
2009,05,17,15,56,21.10
2009,05,17,15,57,21.10
2009,05,17,15,58,21.10
2009,05,17,15,59,21.00
2009,05,17,16,00,20.90
2009,05,17,16,01,20.90
2009,05,17,16,02,20.90
2009,05,17,16,03,20.90
2009,05,17,16,04,20.80
2009,05,17,16,05,20.80
2009,05,17,16,06,20.80
2009,05,17,16,07,20.70
2009,05,17,16,08,20.70
2009,05,17,16,09,20.70
2009,05,17,16,10,20.70
2009,05,17,16,11,20.70
2009,05,17,16,12,20.70
2009,05,17,16,13,20.70
2009,05,17,16,14,20.80
2009,05,17,16,15,20.90
2009,05,17,16,16,21.00
2009,05,17,16,17,21.10
2009,05,17,16,18,21.20
2009,05,17,16,19,21.30
2009,05,17,16,20,21.50
2009,05,17,16,21,21.70
2009,05,17,16,22,21.90
2009,05,17,16,23,22.00
2009,05,17,16,24,22.10
2009,05,17,16,25,22.20
2009,05,17,16,26,22.30
2009,05,17,16,27,22.30
2009,05,17,16,28,22.40
2009,05,17,16,29,22.30
2009,05,17,16,30,22.30
2009,05,17,16,31,22.30
2009,05,17,16,32,22.20
2009,05,17,16,33,22.10
2009,05,17,16,34,22.10
2009,05,17,16,35,22.10
2009,05,17,16,36,22.10
2009,05,17,16,37,22.10
2009,05,17,16,38,22.10
2009,05,17,16,39,22.10
2009,05,17,16,40,22.10
2009,05,17,16,41,22.10
2009,05,17,16,42,22.20
2009,05,17,16,43,22.30
2009,05,17,16,44,22.30
2009,05,17,16,45,22.30
2009,05,17,16,46,22.30
2009,05,17,16,47,22.30
2009,05,17,16,48,22.30
2009,05,17,16,49,22.30
2009,05,17,16,50,22.40
2009,05,17,16,51,22.40
2009,05,17,16,52,22.30
2009,05,17,16,53,22.30
2009,05,17,16,54,22.20
2009,05,17,16,55,22.20
2009,05,17,16,56,22.20
2009,05,17,16,57,22.10
2009,05,17,16,58,22.10
2009,05,17,16,59,22.20
2009,05,17,17,00,22.20
2009,05,17,17,01,22.30
2009,05,17,17,02,22.40
2009,05,17,17,03,22.30
2009,05,17,17,04,22.40
2009,05,17,17,05,22.40
2009,05,17,17,06,22.40
2009,05,17,17,07,22.40
2009,05,17,17,08,22.50
2009,05,17,17,09,22.60
2009,05,17,17,10,22.70
2009,05,17,17,11,22.60
2009,05,17,17,12,22.50
2009,05,17,17,13,22.40
2009,05,17,17,14,22.30
2009,05,17,17,15,22.20
2009,05,17,17,16,22.10
2009,05,17,17,17,22.10
2009,05,17,17,18,22.00
2009,05,17,17,19,21.90